642  
ASUS46 KPDT 260425  
RWRPDT  
PENDLETON REGIONAL WEATHER ROUNDUP  
NATIONAL WEATHER SERVICE PENDLETON OREGON  
900 PM PDT MON MAR 25 2019  
 
NOTE: FAIR INDICATES FEW OR NO CLOUDS BELOW 12,000 FEET WITH NO  
SIGNIFICANT WEATHER AND/OR S TO VISIBILITY
.  
 
# INDICATES UNOFFICIAL STATION AND DATA  
 
WAZ520-260510-  
EAST SLOPES OF WASHINGTON CASCADES  
 
CITY SKY/WX TMP DP RH WIND PRES REMARKS
 
#BULLFROG N/A 42 37 82 CALM N/A  
#EASTON DOT N/A N/A N/A N/A CALM N/A  
#ELK HTS DOT N/A 41 41 100 S2 N/A  
#GLENWOOD N/A 41 37 86 S1 29.99R  
#NELSON 3SW N/A 34 32 92 CALM 30.13R  
#TEANAWAY 4NE N/A 42 41 96 CALM N/A  
#TROUT LAKE 1NE N/A 37 35 92 CALM 30.00R  
#TROUT LAKE 1E N/A 36 34 92 CALM 29.98R  

 
 
WAZ521-260510-  
SIMCOE HIGHLANDS  
 
CITY SKY/WX TMP DP RH WIND PRES REMARKS
 
#BICKLETON HS N/A 38 36 92 W18 29.59R WCI 28  
#SATUS PASS DOT N/A 36 34 92 W2 N/A  
#CENTERVILLE 1SWN/A 40 36 85 CALM 29.95R  
#GOODNOE HILLS N/A 45 38 76 NW23 29.86R WCI 36  
#LYLE 6NE N/A 42 38 86 CALM 29.99R  
#PITT 4SE N/A 39 35 85 CALM 29.99R  

 
 
WAZ026-260510-  
KITTITAS VALLEY  
 
CITY SKY/WX TMP DP RH WIND PRES REMARKS
 
ELLENSBURG AP MOCLDY 45 41 86 W5 29.89R  
#ELLENSBURG CWU N/A 45 41 86 SW2 29.85R  
#ELLENSBURG 3NE N/A 43 41 93 N1 27.99R  
#ELLENSBURG 1E N/A 45 42 89 CALM 29.95R  
#KITTITAS 3S N/A 43 41 93 SW1 29.91R  
#MANASTASH RDG N/A 38 38 100 SW6 N/A  
#ROCKY CYN DOT N/A 44 41 89 N1 N/A  
#RYEGRASS DOT N/A 42 38 86 CALM N/A  
#THORP 6N N/A 46 35 65 CALM 29.91S  

 
 
WAZ027-260510-  
YAKIMA VALLEY  
 
CITY SKY/WX TMP DP RH WIND PRES REMARKS
 
SUNNYSIDE AP LGT RAIN 47 41 79 W16 29.96R WCI 41  
YAKIMA AIRPORT CLOUDY 46 41 83 W9 29.92R  
YAKIMA-VAGABOND MOCLDY 43 41 93 E7 29.90R  
#DONALD 2NE N/A 45 29 53 SE5 28.79R  
#GRANDVIEW N/A 48 40 74 SW8 29.98R  
#MABTON N/A 48 43 83 W12 29.95R WCI 43  
#NACHES 2SW N/A 44 41 89 W2 29.90F  
#OUTLOOK DOT N/A 47 41 79 W10 29.90R  
#PARKER DOT N/A 45 42 89 S2 29.92R  
#TERRACE HTS N/A 44 42 93 CALM 29.91R  
#TOPPENISH N/A 46 41 83 CALM 29.88R  
#I82 S UMTANUM RN/A 43 41 93 SW12 N/A WCI 37  
#UNION GAP DOT N/A 47 39 74 SW6 29.92R  
#ZILLAH DOT N/A 46 41 83 W10 N/A  

 
 
WAZ028-260510-  
LOWER COLUMBIA BASIN...WASHINGTON  
 
CITY SKY/WX TMP DP RH WIND PRES REMARKS
 
PASCO MOCLDY 50 46 86 CALM 29.91R  
PROSSER AWOS N/A 48 48 100 W16G24 29.99R WCI 42  
RICHLAND AWOS PTCLDY 49 45 86 S3 29.91R  
#BASIN CITY 5SW N/A 49 45 86 CALM 29.86F  
#CONNELL 5N N/A 49 45 86 NW2 29.91R  
#CONNELL 5NW N/A 50 25 37 CALM 29.86R  
#ELTOPIA 6NW N/A 50 46 86 CALM 28.86F  
#KENNEWICK 3S N/A 50 43 77 S1 29.91S  
#PROSSER DOT N/A 47 43 86 W10 29.94R  
#SAGEMOOR 2W N/A 50 44 80 CALM 29.76F  
#TOUCHET 2S N/A 51 44 77 S7 29.90F  
#WEST PASCO N/A 51 43 74 CALM 29.91S  

 
 
WAZ029-260510-  
FOOTHILLS OF THE BLUES...WASHINGTON  
 
CITY SKY/WX TMP DP RH WIND PRES REMARKS
 
WALLA WALLA AP CLOUDY 52 43 71 S9 29.95R  
#CLYDE 6NW N/A 50 42 74 SW5 29.91R  
#DELANEY DOT N/A 53 43 69 S9 29.96R  
#LOWDEN 2SE N/A 51 46 83 E7 29.89S  
#PLEASANT VIEW 1N/A 48 42 80 SW2 29.96R  
#PRESCOTT N/A 53 45 74 CALM 29.94R  
#WHITMAN COLLEGEN/A 51 44 77 E5 29.97F  
#WAITSBURG 6SSE N/A 49 41 74 E7 29.77R  
#WALLA WALLA 5E N/A 50 45 83 SE6 N/A  
#WHITMAN MISSIONN/A 52 46 80 E5 29.95S  

 
 
WAZ030-260510-  
BLUE MOUNTAINS...WASHINGTON  
 
CITY SKY/WX TMP DP RH WIND PRES REMARKS
 
#DIXIE 5SE N/A 45 39 79 SE12 29.87R WCI 39  

 
 
ORZ009-041-WAZ024-260510-  
COLUMBIA RIVER GORGE  
 
CITY SKY/WX TMP DP RH WIND PRES REMARKS
 
HOOD RIVER AP MOCLDY 45 39 79 MISG 29.98S  
THE DALLES AP MOCLDY 47 39 74 W6 29.98R  
#ARLINGTON AIRPON/A 46 40 79 W13 29.95R WCI 40  
#CELILO DOT N/A 50 38 63 SW6 N/A  
#LYLE N/A 47 43 86 NW5 30.00R  
#MARYHILL N/A 45 39 79 N16G25 29.82R WCI 38  
#MURDOCK N/A 45 41 86 NW3 29.94R  
#RUFUS DOT N/A 49 40 71 N8 N/A  
#SMITHVILLE N/A 47 41 79 N8 29.92F  
 

 
 
ORZ510-260510-  
NORTH CENTRAL OREGON  
 
CITY SKY/WX TMP DP RH WIND PRES REMARKS
 
#ANTELOPE N/A 43 35 73 SW2 29.83R  
#COW CYN RST AREN/A 42 34 73 SW8 N/A  
#DUFUR N/A 41 37 86 NE1 29.95R  
#DUFUR 9E N/A 39 37 92 NW2 30.02R  
#GRASS VALLEY 1SN/A 42 38 86 SW7 30.10R  
#KENT DOT N/A 41 33 73 W13 N/A WCI 34  
#SHANIKO 5WSW N/A 38 34 85 SW3 N/A  
#WAPANITIA AIRPON/A 43 35 73 W2 29.99R  
#WASCO DOT N/A 44 44 100 CALM N/A  
#WASCO 5NE N/A 42 39 89 W8 29.96R  

 
 
ORZ511-260510-  
CENTRAL OREGON  
 
CITY SKY/WX TMP DP RH WIND PRES REMARKS
 
BEND AIRPORT MOCLDY 41 34 76 SW12 29.95R WCI 34  
MADRAS AIRPORT PTCLDY 39 32 76 SE6 29.98R  
PRINEVILLE AP CLOUDY 43 34 70 W8 29.95R  
REDMOND AIRPORT MOCLDY 44 33 65 S9 29.94R  
#ASHWOOD SCHOOL N/A 44 34 68 SE1 29.92R  
#BEND 1SW N/A 36 33 89 CALM N/A  
#BEND-AWBREY N/A 38 35 89 W2 29.97R  
#BEND-KIM LN N/A 38 33 82 CALM 29.94R  
#CULVER N/A 40 33 76 CALM 29.64R  
#CULVER 8W N/A 42 33 70 W5 29.97R  
#LAKE BILLY CHINN/A 43 N/A N/A SW8 30.05R  
#POWELL BUTTE N/A 42 34 73 S3 29.91R  
#PRINEVILLE N/A 47 35 63 NW2 30.03R  
#PRINEVILLE 3N N/A 44 36 73 W2 29.95R  
#WARM SPRINGS N/A 47 36 65 CALM 29.82R  
 

 
 
 
ORZ509-260510-  
EAST SLOPES OF OREGON CASCADES  
 
CITY SKY/WX TMP DP RH WIND PRES REMARKS
 
SISTERS AWOS N/A 37 34 89 CALM 29.93R  
#CAMP SHERMAN N/A 33 30 89 CALM 30.10R  
#LA PINE 4NW N/A 35 30 82 CALM 30.10S  
#LAVA BUTTE DOT N/A 35 31 85 CALM N/A  
#SISTERS ODOT N/A 36 32 85 CALM N/A  
#SISTERS 3N N/A 36 28 72 N2 29.93R  
#WANOGA BUTTE D N/A 29 29 100 W7 N/A  
 

 
 
ORZ044-260510-  
LOWER COLUMBIA BASIN...OREGON  
 
CITY SKY/WX TMP DP RH WIND PRES REMARKS
 
HERMISTON CLOUDY 53 42 66 SE13 29.89S  
#BOARDMAN SCHOOLN/A 50 43 77 SW8 29.93R  
#BOARDMAN 8SW N/A 49 43 80 W15 29.96R WCI 43  
#ECHO 8SW N/A 50 50 100 CALM 29.91R  
#I-84 EX 198 DOTN/A 50 42 74 NE16 N/A  
#IONE SCHOOL N/A 48 35 60 W13G26 29.98R WCI 43  
#UMATILLA N/A 51 41 68 CALM 29.84R  

 
 
ORZ507-260510-  
NORTHERN FOOTHILLS OF THE BLUES  
 
CITY SKY/WX TMP DP RH WIND PRES REMARKS
 
PENDLETON AIRPT CLOUDY 49 41 74 E13 29.90F WCI 44  
#ADAMS 3WNW N/A 46 42 86 CALM 29.91F  
#ATHENA N/A 47 42 83 E5 29.94F  
#CAYUSE N/A 51 44 77 E2 29.91F  
#HELIX SCHOOL N/A 46 42 86 CALM 29.93S  
#HELIX 3N N/A 46 42 86 SE8 29.94S  
#HOLDMAN 6E N/A 46 42 86 N1 29.71F  
#M-FREEWATER 5SEN/A 50 42 74 E12 29.93F  
#PENDLETON DNTN N/A 51 40 66 E6 29.90F  
#PDT AQUATIC CTRN/A 50 40 68 CALM 29.65S  
#PDT SUNRIDGE N/A 48 44 86 CALM 29.92F  
#PENDLETON 6SE N/A 52 43 71 SE13 29.87F  
#PILOT ROCK N/A 48 41 77 CALM 29.92F  
#TUTUILLA N/A 47 40 76 S2 29.96F  
#UMAPINE 2E N/A 51 46 83 SE8 29.93S  
 

 
 
ORZ508-260510-  
SOUTHERN FOOTHILLS OF THE BLUES  
 
CITY SKY/WX TMP DP RH WIND PRES REMARKS
 
#AJAX N/A 44 33 65 CALM 30.11R  
#CONDON 5W N/A 38 35 89 CALM 29.91R  
#HEPPNER EOC N/A 50 37 61 SW10 29.87R  
#HEPPNER 4NE N/A 46 37 71 SW5 29.92R  
#LEXINGTON 2SE N/A 51 41 68 S8 29.87R  
#OLEX 4N N/A 44 40 86 W7 29.94R  
#RUGGS 5NE N/A 46 35 65 S5 30.07S  
#RUGGS 2SW N/A 46 37 71 SW1 29.94R  
 

 
 
ORZ502-503-260510-  
BLUE MOUNTAINS  
 
CITY SKY/WX TMP DP RH WIND PRES REMARKS
 
MEACHAM CLOUDY 38 36 92 CALM 29.96R  
#BATTLE MTN DOT N/A 42 29 60 S3 N/A  
#GRANITE N/A 36 32 85 E2 29.68R  
#LADD CYN SMT N/A 51 30 44 SE3 N/A  
#LADD CREEK ODOTN/A 45 35 68 SW6 N/A  
#N POWDER DOT N/A 51 32 48 S13 N/A  
#SUMMERVILLE 5NWN/A 48 39 71 W8 26.62R  
#TOLLGATE N/A 35 34 96 CALM 29.99R  
#TROY SCHOOL N/A 47 38 71 CALM 29.80R  
#WESTON 4E N/A 41 39 93 SE1 29.93S  

 
 
ORZ505-260510-  
JOHN DAY BASIN  
 
CITY SKY/WX TMP DP RH WIND PRES REMARKS
 
JOHN DAY MOCLDY 48 35 60 S10 29.97R  
#DAYVILLE SCHOOLN/A 51 33 50 N1 29.90R  
#MITCHELL 8NW N/A 45 31 58 S1 29.96R  
#MONUMENT HS N/A 53 35 50 CALM 29.89R  

 
 
ORZ506-260510-  
OCHOCO AND JOHN DAY HIGHLANDS  
 
CITY SKY/WX TMP DP RH WIND PRES REMARKS
 
#PAULINA ODOT N/A 44 33 65 NE5 N/A  
#PRAIRIE CITY N/A 44 38 79 CALM 30.11F  
#SENECA N/A 41 N/A N/A SW2 N/A  
#SENECA 9NW N/A 39 31 73 CALM 30.02R  

 
 
ORZ049-260510-  
GRANDE RONDE VALLEY  
 
CITY SKY/WX TMP DP RH WIND PRES REMARKS
 
LA GRANDE PTCLDY 51 35 54 S3 29.95R  
#COVE SCHOOL N/A 55 33 43 SE2 29.95R  
#COVE 6NW N/A 53 37 54 S9 29.96R  
#ELGIN 3N N/A 48 34 58 CALM 30.14S  
#ELGIN 1E N/A 46 35 65 CALM N/A  
#IMBLER SCHOOL N/A 47 36 65 CALM 29.91R  
#ISLAND CITY 4N N/A 45 43 93 CALM 30.02R  
#LADD CYN DOT N/A 53 35 50 S8 N/A  
#UNION 1S N/A 55 36 49 S5 29.95R  

 
 
ORZ050-260510-  
WALLOWA COUNTY  
 
CITY SKY/WX TMP DP RH WIND PRES REMARKS
 
#ENTERPRISE HS N/A 43 33 67 CALM 29.88R  
#IMNAHA SCHOOL N/A 49 38 66 CALM 29.92R  
#JOSEPH N/A 48 26 42 N1 30.11R  
#JOSEPH 3N N/A 45 27 49 W5 29.96R  
#JOSEPH 3W N/A 43 29 57 CALM 29.79R  
#LOSTINE N/A 37 31 79 S2 29.82R  
#LOSTINE 3SE N/A 37 30 75 E1 29.99R  
#MT HOWARD 8000 N/A 34 24 66 S14G30 29.92R WCI 25  
#PROMISE 1S N/A 40 32 73 CALM 30.08R  
#WALLOWA SCHOOL N/A 36 32 85 CALM 29.92R  
 

 
 
CLICK HERE TO GO TO PREVIOUS BULLETINS.

The Nexlab OR Page
The Nexlab WA Page Main Text Page